Location: Derby
(52.9213°N, 1.4761°W)
Time: 17:51:15
(UTC+01:00)

Tiros 1 - Pass Details

Date: 26 May 2025
Orbit: 620 x 651 km, 48.4° (Epoch: 13 June)

Event Time Altitude Azimuth Distance (km) Brightness Sun altitude
Rises 19:05:03 0° 263° (W) 2,895 11.9 16.5°
Reaches altitude 10° 19:07:25 10° 258° (WSW) 1,991 11.0 16.2°
Maximum altitude 19:11:49 48° 185° (S) 822 7.8 15.5°
Drops below altitude 10° 19:16:14 10° 111° (ESE) 2,005 9.1 14.9°
Sets 19:18:37 0° 106° (ESE) 2,917 9.9 14.6°
